Weather History for South Pass, WY

Change the Weather History Date:

Friday, July 5, 2013

  Actual Average (KLND) Record (KLND)
Temperature  
Mean Temperature 62 °F 70 °F  
Max Temperature 71 °F 85 °F 98 °F (2001)
Min Temperature 53 °F 54 °F 37 °F (1901)
Degree Days  
Heating Degree Days 3 1  
Month to date heating degree days 5  
Since 1 June heating degree days 131  
Since 1 July heating degree days 5  
Cooling Degree Days 0 5  
Month to date cooling degree days 25  
Year to date cooling degree days 94  
Since 1 June cooling degree days 89  
Growing Degree Days 12 (Base 50)    
Moisture  
Dew Point 45 °F    
Average Humidity 55    
Maximum Humidity 88    
Minimum Humidity 31    
Precipitation  
Precipitation 0.00 in 0.01 in 0.68 in (1904)
Month to date precipitation 0.08  
Year to date precipitation 7.57  
Snow  
Snow 0.00 in 0.00 in - ()
Month to date snowfall 0.0  
Since 1 June snowfall 0.1  
Since 1 July snowfall 0.0  
Snow Depth -    
Sea Level Pressure  
Sea Level Pressure 30.10 in    
Wind  
Wind Speed 8 mph (West)    
Max Wind Speed 23 mph    
Max Gust Speed 30 mph    
Visibility 10 miles    
Events Rain , Thunderstorm    
T = Trace of Precipitation, MM = Missing Value Source: NWS Daily Summary

Daily Weather History Graph

Daily Weather History Graph

Search for Another Location

Airport:

Trip Planner

Search our weather history database for the weather conditions in past years. The results will help you decide how hot, cold, wet, or windy it might be!

Date:

Astronomy

Jul. 05, 2013 Rise Set
Actual Time 5:44 AM MDT 8:55 PM MDT
Civil Twilight 5:09 AM MDT 9:29 PM MDT
Nautical Twilight 4:25 AM MDT 10:13 PM MDT
Astronomical Twilight 3:31 AM MDT 11:07 PM MDT
Moon 3:47 AM MDT (7/5) 6:51 PM MDT (7/5)
Length of Visible Light 16h 20m
Length of Day
15h 11m
Waning Crescent, 6% of the Moon is Illuminated
Jul 5
Waning Crescent
Jul 8
New
Jul 15
First Quarter
Jul 22
Full
Jul 29
Last Quarter

Hourly Weather History & Observations

Time (MDT) Temp. Dew Point Humidity Pressure Visibility Wind Dir Wind Speed Gust Speed Precip Events Conditions
12:15 AM 53.6 °F 50.0 °F 88% 30.16 in 10.0 mi North 9.2 mph - N/A   Scattered Clouds
12:35 AM 53.6 °F 50.0 °F 88% 30.15 in 10.0 mi NNW 9.2 mph - N/A   Clear
12:55 AM 53.6 °F 50.0 °F 88% 30.15 in 10.0 mi NNW 10.4 mph - N/A   Clear
1:15 AM 53.6 °F 50.0 °F 88% 30.15 in 10.0 mi NW 5.8 mph - N/A   Clear
1:35 AM 53.6 °F 48.2 °F 82% 30.16 in 10.0 mi West 5.8 mph - N/A   Clear
1:55 AM 55.4 °F 46.4 °F 72% 30.15 in 10.0 mi WSW 6.9 mph - N/A   Mostly Cloudy
2:15 AM 55.4 °F 46.4 °F 72% 30.14 in 10.0 mi WSW 5.8 mph - N/A   Scattered Clouds
2:35 AM 55.4 °F 46.4 °F 72% 30.13 in 10.0 mi WSW 6.9 mph - N/A Thunderstorm Scattered Clouds
2:55 AM 55.4 °F 46.4 °F 72% 30.13 in 10.0 mi WSW 6.9 mph - N/A   Mostly Cloudy
3:15 AM 55.4 °F 46.4 °F 72% 30.12 in 10.0 mi WSW 5.8 mph - N/A Thunderstorm Overcast
3:35 AM 55.4 °F 46.4 °F 72% 30.10 in 10.0 mi WSW 6.9 mph - N/A   Overcast
3:55 AM 55.4 °F 46.4 °F 72% 30.11 in 10.0 mi SW 8.1 mph - N/A   Scattered Clouds
4:15 AM 55.4 °F 46.4 °F 72% 30.11 in 10.0 mi SW 9.2 mph - N/A   Clear
4:35 AM 55.4 °F 44.6 °F 67% 30.10 in 10.0 mi WSW 9.2 mph - N/A   Clear
4:55 AM 55.4 °F 44.6 °F 67% 30.09 in 10.0 mi WNW 6.9 mph - N/A   Clear
5:15 AM 57.2 °F 42.8 °F 59% 30.09 in 10.0 mi Calm Calm - N/A   Scattered Clouds
5:35 AM 55.4 °F 44.6 °F 67% 30.09 in 10.0 mi West 6.9 mph - N/A   Scattered Clouds
5:55 AM 59.0 °F 42.8 °F 55% 30.08 in 10.0 mi West 6.9 mph - N/A   Clear
6:15 AM 59.0 °F 42.8 °F 55% 30.08 in 10.0 mi Calm Calm - N/A   Clear
6:35 AM 59.0 °F 42.8 °F 55% 30.08 in 10.0 mi West 6.9 mph - N/A   Scattered Clouds
6:55 AM 60.8 °F 44.6 °F 55% 30.08 in 10.0 mi West 10.4 mph 19.6 mph N/A   Scattered Clouds
7:15 AM 60.8 °F 44.6 °F 55% 30.08 in 10.0 mi West 11.5 mph 16.1 mph N/A   Clear
7:35 AM 60.8 °F 44.6 °F 55% 30.09 in 10.0 mi WNW 8.1 mph - N/A   Clear
7:55 AM 62.6 °F 46.4 °F 55% 30.09 in 10.0 mi West 3.5 mph - N/A   Clear
8:15 AM 62.6 °F 46.4 °F 55% 30.09 in 10.0 mi West 4.6 mph - N/A   Clear
8:35 AM 64.4 °F 44.6 °F 49% 30.10 in 10.0 mi Calm Calm - N/A   Clear
8:55 AM 64.4 °F 44.6 °F 49% 30.10 in 10.0 mi NE 3.5 mph - N/A   Clear
9:15 AM 66.2 °F 48.2 °F 52% 30.10 in 10.0 mi ESE 5.8 mph - N/A   Clear
9:35 AM 66.2 °F 48.2 °F 52% 30.10 in 10.0 mi East 5.8 mph - N/A   Clear
9:55 AM 68.0 °F 46.4 °F 46% 30.10 in 10.0 mi SE 6.9 mph - N/A   Clear
10:15 AM 68.0 °F 48.2 °F 49% 30.10 in 10.0 mi ESE 8.1 mph - N/A   Scattered Clouds
10:35 AM 68.0 °F 48.2 °F 49% 30.10 in 10.0 mi NE 12.7 mph - N/A   Mostly Cloudy
10:55 AM 68.0 °F 48.2 °F 49% 30.11 in 10.0 mi NE 6.9 mph - N/A   Overcast
11:15 AM 66.2 °F 48.2 °F 52% 30.11 in 10.0 mi NE 3.5 mph - N/A   Overcast
11:35 AM 64.4 °F 48.2 °F 56% 30.12 in 10.0 mi NE 6.9 mph - N/A   Overcast
11:55 AM 64.4 °F 48.2 °F 56% 30.12 in 10.0 mi NNE 5.8 mph - N/A   Overcast
12:15 PM 64.4 °F 46.4 °F 52% 30.12 in 10.0 mi ENE 4.6 mph - N/A   Overcast
12:35 PM 66.2 °F 46.4 °F 49% 30.12 in 10.0 mi SE 8.1 mph - N/A   Overcast
12:55 PM 68.0 °F 46.4 °F 46% 30.12 in 10.0 mi SSE 4.6 mph - N/A   Overcast
1:15 PM 69.8 °F 37.4 °F 31% 30.11 in 10.0 mi West 12.7 mph 16.1 mph N/A   Overcast
1:35 PM 69.8 °F 37.4 °F 31% 30.11 in 10.0 mi WSW 13.8 mph 18.4 mph N/A   Overcast
1:55 PM 71.6 °F 39.2 °F 31% 30.11 in 10.0 mi West 10.4 mph 17.3 mph N/A   Overcast
2:15 PM 69.8 °F 39.2 °F 33% 30.10 in 10.0 mi West 6.9 mph - N/A   Overcast
2:35 PM 71.6 °F 41.0 °F 33% 30.11 in 10.0 mi SW 11.5 mph - N/A   Mostly Cloudy
2:55 PM 71.6 °F 41.0 °F 33% 30.10 in 10.0 mi West 10.4 mph 18.4 mph N/A   Scattered Clouds
3:15 PM 71.6 °F 41.0 °F 33% 30.10 in 10.0 mi West 11.5 mph 17.3 mph N/A   Scattered Clouds
3:35 PM 71.6 °F 41.0 °F 33% 30.09 in 10.0 mi SW 13.8 mph 18.4 mph N/A   Mostly Cloudy
3:55 PM 71.6 °F 41.0 °F 33% 30.09 in 10.0 mi SW 12.7 mph 18.4 mph N/A   Mostly Cloudy
4:15 PM 69.8 °F 44.6 °F 40% 30.09 in 10.0 mi SW 16.1 mph 19.6 mph N/A Rain Light Rain
4:35 PM 69.8 °F 42.8 °F 38% 30.08 in 10.0 mi SW 9.2 mph - N/A   Scattered Clouds
4:55 PM 69.8 °F 44.6 °F 40% 30.07 in 10.0 mi SSW 8.1 mph - N/A   Clear
5:15 PM 71.6 °F 42.8 °F 35% 30.06 in 10.0 mi SW 9.2 mph - N/A   Clear
5:35 PM 69.8 °F 41.0 °F 35% 30.06 in 10.0 mi SW 8.1 mph 18.4 mph N/A   Scattered Clouds
5:55 PM 71.6 °F 42.8 °F 35% 30.05 in 10.0 mi SSW 6.9 mph - N/A   Scattered Clouds
6:15 PM 71.6 °F 41.0 °F 33% 30.05 in 10.0 mi SW 6.9 mph - N/A   Scattered Clouds
6:35 PM 71.6 °F 41.0 °F 33% 30.05 in 10.0 mi SSW 4.6 mph - N/A   Scattered Clouds
6:55 PM 69.8 °F 41.0 °F 35% 30.04 in 10.0 mi West 3.5 mph - N/A   Scattered Clouds
7:15 PM 69.8 °F 37.4 °F 31% 30.05 in 10.0 mi WNW 23.0 mph 29.9 mph N/A   Mostly Cloudy
7:35 PM 64.4 °F 39.2 °F 40% 30.05 in 10.0 mi NW 15.0 mph - N/A   Scattered Clouds
7:55 PM 64.4 °F 44.6 °F 49% 30.06 in 10.0 mi NW 10.4 mph - N/A   Clear
8:15 PM 62.6 °F 44.6 °F 52% 30.06 in 10.0 mi WNW 9.2 mph - N/A   Clear
8:35 PM 64.4 °F 39.2 °F 40% 30.08 in 10.0 mi NNW 9.2 mph - N/A   Clear
8:55 PM 60.8 °F 50.0 °F 68% 30.07 in 10.0 mi NNW 16.1 mph - N/A   Clear
9:15 PM 59.0 °F 50.0 °F 72% 30.07 in 10.0 mi NNW 12.7 mph 19.6 mph N/A   Clear
9:35 PM 59.0 °F 50.0 °F 72% 30.07 in 10.0 mi NNW 11.5 mph - N/A   Clear
9:55 PM 59.0 °F 50.0 °F 72% 30.09 in 10.0 mi NNW 15.0 mph - N/A   Clear
10:15 PM 57.2 °F 50.0 °F 77% 30.09 in 10.0 mi NNW 17.3 mph - N/A   Clear
10:35 PM 57.2 °F 48.2 °F 72% 30.10 in 10.0 mi NNW 15.0 mph - N/A   Clear
10:55 PM 57.2 °F 48.2 °F 72% 30.10 in 10.0 mi North 10.4 mph - N/A   Clear
11:15 PM 57.2 °F 48.2 °F 72% 30.12 in 10.0 mi Calm Calm - N/A   Clear
11:35 PM 55.4 °F 46.4 °F 72% 30.12 in 10.0 mi North 4.6 mph - N/A   Scattered Clouds
11:55 PM 57.2 °F 46.4 °F 67% 30.12 in 10.0 mi NNE 3.5 mph - N/A   Mostly Cloudy